sat.trackr.live / text

‹ back to catalog

TJS-16

NORAD 63397 · 2025-064A

PAYLOAD ACTIVE UNKNOWN

§ Identity

Operator
Country
PRC
Launch date
2025-03-29
Launch site
WSC
Launch vehicle
Mass (kg)
RCS (m²)

Purposes: comms

External: N2YO · Heavens-Above · Gunter

§ Orbital elements

Epoch: 2026-05-24T18:24:49.648320Z

Period
1,436.09 min
Inclination
1.0400°
Eccentricity
0.0004077
Mean motion
1.00272384 rev/d
Perigee alt
35,769.2 km
Apogee alt
35,803.6 km
Semi-major
42,164.6 km
B*
0.0000e+0
RAAN
81.5629°
Arg perigee
286.9808°
Mean anomaly
310.5881°
Rev number
415

§ Raw data

TJS-161 63397U 25064A   26144.76724130 -.00000108  00000+0  00000+0 0  99902 63397   1.0400  81.5629 0004077 286.9808 310.5881  1.00272384  4158

JSON: /api/v1/satellites/63397 · /tle

For live sub-satellite position, see the globe view (requires WebGL).

§ Visibility from observer

Set your observer location to see the next 7 days of passes ≥ 10°. The values pass through the URL so the page stays shareable.

No JS? Fill the form by hand. The geolocation button needs JavaScript.